Temperature
4 4 5 5 5 5 5 5 5 5 5 5 5 5 5 5 6 6 6 6 6 6 6 6 6 6 6 6 6 5 5 5 5 5 5 5 5 5 5 5 5 5 5
4 4 4 4 4 4 4 5 5 5 5 5 5 5 5 5 5 5 5 5 5 5 5 5 5 5 5 5 5 5 5 5 5 5 5 5 5 5 5 5 5 5 5
3 3 3 3 3 4 4 4 4 4 4 4 4 4 4 4 4 4 5 5 5 5 5 5 5 5 5 5 5 5 5 4 4 4 4 4 4 4 4 4 4 4 4
2 3 3 3 3 3 3 3 4 4 4 4 4 4 4 4 4 4 4 4 4 4 4 4 4 4 4 4 4 4 4 4 4 4 4 4 4 4 3 3 3 3 3
1 2 2 2 2 2 3 3 3 3 3 3 3 3 3 3 3 3 3 3 4 4 4 4 4 4 4 4 4 4 4 4 4 3 3 3 3 3 3 3 3 3 3
0 1 1 1 2 2 2 2 3 3 3 3 3 3 3 3 3 3 3 3 3 3 3 3 3 3 3 3 3 3 3 3 3 3 3 3 3 3 3 3 2 2 2
-0 0 0 1 1 1 2 2 2 2 2 2 2 2 2 2 2 2 2 2 2 2 2 3 2 2 2 3 3 3 3 2 3 3 3 3 2 2 2 2 2 2 2
-1 -1 -0 -0 0 1 1 1 1 1 1 1 1 1 2 2 2 2 2 2 2 2 2 2 2 2 2 2 2 2 2 2 2 2 2 2 2 2 2 2 1 1 1
-1 -1 -1 -1 -0 -0 0 0 0 1 1 1 1 1 1 1 1 1 1 1 1 1 1 1 1 1 1 1 1 1 1 1 1 1 2 1 1 1 1 1 1 1 0
-2 -1 -1 -1 -1 -1 -0 -0 -0 -0 0 0 0 0 0 0 1 1 1 1 1 1 1 1 1 1 1 1 1 1 1 1 1 1 1 1 1 1 1 1 0 0 -0
-2 -2 -2 -2 -1 -1 -1 -1 -1 -1 -1 -1 -1 -0 -0 -0 -0 0 0 0 0 0 0 0 0 0 0 0 0 0 0 0 0 0 0 0 0 0 -0 -0 -0 -0 -1
-3 -3 -2 -2 -2 -2 -2 -1 -1 -1 -1 -1 -1 -1 -1 -1 -1 -0 -0 -0 -0 -0 -0 -0 -0 -0 -0 -0 -0 -0 -0 -0 -0 -0 -0 -1 -1 -1 -1 -1 -1 -1 -1
-3 -3 -3 -3 -2 -2 -2 -2 -2 -2 -2 -2 -2 -2 -2 -1 -1 -1 -1 -1 -1 -1 -1 -1 -1 -1 -1 -1 -1 -1 -1 -1 -1 -1 -1 -1 -1 -1 -1 -1 -1 -1 -2
-4 -4 -3 -3 -3 -3 -3 -3 -3 -3 -3 -2 -2 -2 -2 -2 -2 -2 -1 -1 -1 -1 -1 -1 -1 -1 -1 -1 -1 -1 -1 -1 -2 -2 -2 -2 -2 -2 -2 -2 -2 -2 -2
-5 -4 -4 -4 -4 -4 -3 -3 -3 -3 -3 -3 -3 -3 -2 -2 -2 -2 -2 -2 -2 -2 -2 -2 -2 -2 -2 -2 -2 -2 -2 -2 -2 -2 -2 -2 -2 -3 -3 -3 -3 -3 -3
-5 -5 -5 -4 -4 -4 -4 -4 -4 -4 -4 -3 -3 -3 -3 -3 -3 -3 -3 -2 -2 -2 -2 -2 -2 -3 -3 -3 -3 -3 -3 -3 -3 -3 -3 -3 -3 -3 -3 -3 -3 -3 -3
-6 -6 -5 -5 -5 -5 -5 -5 -5 -4 -4 -4 -4 -4 -3 -3 -3 -3 -3 -3 -3 -3 -3 -3 -3 -3 -3 -3 -3 -3 -3 -3 -3 -3 -3 -4 -4 -4 -4 -4 -4 -4 -4
-6 -6 -6 -6 -5 -5 -5 -5 -5 -5 -5 -5 -4 -4 -4 -4 -4 -4 -4 -4 -4 -3 -3 -3 -3 -3 -3 -3 -4 -4 -4 -4 -4 -4 -4 -4 -4 -4 -4 -5 -5 -5 -5
-6 -6 -6 -6 -6 -6 -6 -6 -6 -6 -5 -5 -5 -5 -5 -4 -4 -4 -4 -4 -4 -4 -4 -4 -4 -4 -4 -4 -4 -4 -4 -4 -4 -4 -5 -5 -5 -5 -5 -5 -5 -5 -6
-7 -7 -7 -7 -6 -6 -6 -6 -6 -6 -6 -6 -6 -5 -5 -5 -5 -5 -5 -5 -5 -5 -5 -4 -4 -5 -5 -5 -5 -5 -5 -5 -5 -5 -5 -5 -5 -5 -5 -5 -6 -6 -6
-8 -7 -7 -7 -7 -7 -6 -6 -6 -6 -6 -6 -6 -6 -6 -6 -5 -5 -5 -5 -5 -5 -5 -5 -5 -5 -5 -5 -5 -5 -5 -5 -5 -5 -5 -5 -6 -6 -6 -6 -6 -6 -6
-8 -8 -8 -8 -7 -7 -7 -7 -7 -7 -7 -7 -7 -7 -7 -6 -6 -6 -6 -6 -6 -6 -6 -6 -6 -6 -6 -6 -6 -6 -6 -6 -6 -6 -6 -6 -6 -6 -6 -6 -6 -6 -6
-9 -9 -8 -8 -8 -8 -8 -7 -7 -7 -7 -7 -7 -7 -7 -7 -7 -7 -7 -7 -7 -7 -7 -7 -6 -6 -6 -6 -6 -6 -6 -6 -6 -6 -6 -6 -6 -6 -7 -7 -7 -7 -7
-9 -9 -9 -9 -9 -8 -8 -8 -8 -8 -8 -8 -8 -8 -7 -7 -7 -7 -7 -7 -7 -7 -7 -7 -7 -7 -7 -7 -7 -6 -6 -6 -6 -7 -7 -7 -7 -7 -7 -7 -7 -7 -7
-10 -9 -9 -9 -9 -9 -9 -9 -8 -8 -8 -8 -8 -8 -8 -8 -8 -8 -8 -8 -8 -8 -7 -7 -7 -7 -7 -7 -7 -7 -7 -7 -7 -7 -7 -7 -7 -7 -7 -7 -7 -7 -7
-10 -10 -10 -10 -10 -9 -9 -9 -9 -9 -9 -9 -9 -9 -8 -8 -8 -8 -8 -8 -8 -8 -8 -8 -8 -8 -8 -7 -7 -7 -7 -7 -7 -7 -7 -7 -7 -7 -7 -7 -8 -8 -8
Wind_Speed
2 1 2 2 2 2 3 3 3 3 4 4 5 5 5 5 5 6 6 6 6 6 5 7 8 7 6 6 6 6 6 6 6 5 4 4 5 5 4 4 5 5 6
3 2 2 2 2 2 2 3 3 3 4 4 4 5 5 5 6 6 6 6 6 6 6 6 7 6 7 6 6 7 6 6 6 7 5 4 5 5 4 4 4 4 5
3 2 2 2 2 2 2 2 3 3 3 3 4 4 5 6 6 6 6 7 7 7 7 7 7 7 8 6 7 7 6 5 5 6 5 4 4 4 4 3 4 3 3
4 3 2 3 3 3 3 2 3 3 3 4 4 5 5 6 6 6 6 7 6 6 6 7 7 7 8 7 7 7 6 6 6 6 5 4 3 4 4 4 3 3 3
4 3 3 3 3 3 3 3 3 3 3 4 4 4 5 5 5 6 6 6 6 6 6 6 7 7 7 7 6 6 6 6 6 6 5 4 4 4 5 4 4 3 3
5 4 4 3 3 3 3 3 2 3 3 3 4 4 4 4 5 6 6 6 6 6 6 6 5 6 7 7 7 7 7 7 7 6 6 6 6 6 5 4 3 3 3
5 4 4 4 3 3 3 3 3 3 3 4 4 4 4 4 4 5 6 5 5 5 5 5 4 4 6 6 6 6 6 6 7 6 7 7 6 6 6 5 5 5 4
5 4 4 4 4 3 3 4 4 3 3 4 4 4 4 4 4 5 5 5 4 5 5 5 5 5 5 5 4 5 5 5 5 5 5 5 4 4 5 4 4 3 2
5 5 5 4 4 4 4 4 4 3 3 3 4 4 4 4 4 5 4 3 4 4 4 4 5 5 5 5 5 4 3 3 2 3 2 2 2 3 4 3 3 3 2
6 6 5 5 4 4 4 4 3 3 3 3 3 4 4 4 4 4 4 3 3 3 3 4 4 5 5 6 5 5 5 3 2 1 1 1 2 3 4 4 4 4 2
6 6 5 5 4 4 4 3 3 3 3 3 3 3 3 4 4 5 5 3 3 3 3 3 3 4 4 4 5 4 4 3 2 2 1 1 0 1 1 1 2 3 3
6 6 5 5 4 3 3 3 3 2 2 2 2 3 3 3 3 4 5 4 4 4 4 3 3 3 3 4 3 3 3 3 2 2 1 1 1 0 0 0 1 1 1
6 6 5 4 3 3 2 2 2 2 2 2 2 2 2 2 2 2 4 4 4 4 3 3 2 2 2 2 3 3 3 2 2 2 2 1 0 0 1 1 1 2 2
6 6 5 4 3 3 2 2 2 2 2 2 2 2 2 2 2 2 2 2 3 2 2 2 3 2 2 2 2 2 1 2 2 2 1 1 1 1 1 1 1 1 0
6 5 4 3 3 2 2 2 3 3 3 3 2 2 2 3 3 3 2 2 2 2 2 2 2 2 2 1 1 1 1 2 1 1 1 1 1 1 0 0 1 1 1
5 5 4 3 3 2 2 3 4 3 4 4 3 3 2 2 1 1 1 1 2 4 3 2 2 2 2 2 2 1 1 1 1 1 2 2 2 1 1 0 0 1 1
6 5 4 3 3 2 2 2 3 3 4 3 2 2 2 1 1 1 1 2 3 4 2 2 2 2 2 2 2 1 1 1 1 1 1 1 1 1 1 1 1 1 1
6 5 4 3 3 3 2 2 2 2 2 3 3 3 2 1 1 1 3 3 2 2 1 1 2 2 2 2 2 1 1 1 1 1 1 1 1 1 1 1 1 1 1
6 4 4 3 3 2 2 2 1 1 1 2 2 3 3 3 3 3 3 1 2 1 1 1 1 1 1 1 1 1 1 1 1 1 1 1 1 1 1 1 1 1 1
5 5 4 3 3 2 2 1 1 1 1 1 1 2 2 2 2 2 2 2 2 1 1 1 1 1 1 1 1 1 1 1 1 1 1 1 1 1 1 1 2 2 2
4 4 4 3 2 2 2 1 1 1 1 1 1 2 3 2 2 2 2 2 1 1 1 1 1 1 0 1 1 1 1 1 1 1 1 1 1 1 1 1 2 2 1
4 4 3 3 2 2 1 1 1 1 1 1 1 2 2 2 2 2 2 2 2 1 1 1 1 0 0 0 1 1 1 2 1 1 1 1 1 1 1 2 2 2 2
4 3 3 2 2 2 1 1 1 1 1 1 1 1 1 1 1 1 1 2 2 2 2 1 1 1 1 0 1 1 2 2 2 2 2 2 2 2 2 2 3 3 3
4 3 2 2 1 1 1 1 1 1 1 1 1 1 1 1 1 1 1 2 2 2 2 1 1 1 1 1 1 1 1 2 2 2 3 3 2 2 2 2 3 3 3
3 3 2 2 1 1 1 1 1 1 1 1 1 1 1 1 1 1 1 1 1 1 1 1 1 1 1 1 2 1 1 2 2 3 3 3 3 3 3 3 3 3 3
4 3 2 2 2 1 1 1 1 1 1 1 1 1 1 1 1 1 1 1 1 1 1 1 1 1 2 1 1 1 2 2 2 2 2 2 2 2 2 2 3 2 3
Wind_Direction
305 274 248 241 232 226 223 228 228 225 221 220 219 218 218 218 218 218 221 218 220 223 223 226 227 226 223 223 221 226 230 233 245 257 259 253 250 245 248 248 245 241 236
310 293 272 261 247 239 238 238 236 234 231 228 225 223 225 223 223 222 223 223 223 223 226 228 231 224 223 224 221 224 227 231 237 243 246 245 252 247 250 253 256 248 241
320 303 291 283 268 260 255 251 244 240 237 233 229 228 229 227 226 227 227 227 229 229 227 227 229 224 224 224 225 226 226 227 234 237 242 250 255 249 251 259 256 249 250
322 312 295 292 285 273 269 261 255 248 241 238 237 236 236 235 231 228 228 228 230 232 231 229 228 225 227 225 227 228 225 223 224 225 231 238 246 245 236 243 246 247 258
326 319 304 302 297 280 271 269 265 261 257 248 244 244 243 238 234 231 228 230 232 234 236 236 235 231 232 230 229 228 223 224 221 221 224 231 231 226 228 233 237 236 266
323 316 309 305 301 291 277 272 269 269 269 261 249 246 249 245 232 235 234 233 234 234 236 240 242 232 227 226 228 232 230 227 223 223 228 228 232 231 227 219 225 236 252
319 317 311 305 297 295 291 271 258 259 259 259 258 252 253 250 232 233 233 236 238 240 239 238 241 239 230 224 221 222 232 238 238 237 232 234 235 226 217 222 226 237 244
319 317 314 305 294 292 288 277 267 264 262 262 260 258 256 256 244 239 235 235 236 239 239 235 233 235 229 221 221 222 230 238 241 242 241 246 242 226 223 231 229 234 269
317 316 312 303 295 287 282 283 281 270 266 264 260 258 254 256 246 241 238 233 228 234 236 236 231 233 222 213 209 214 222 245 254 239 243 240 217 204 188 180 198 203 242
311 311 309 303 294 284 283 285 287 274 268 269 266 260 254 254 245 240 236 229 226 229 234 235 230 229 222 214 212 211 218 227 205 182 199 216 226 201 199 212 215 213 229
311 311 309 305 297 288 289 288 280 273 269 264 266 270 263 256 247 238 232 228 224 225 229 237 235 214 219 222 228 228 223 216 202 191 185 166 171 203 223 239 248 233 229
314 312 310 308 303 293 290 293 282 263 257 264 268 277 278 268 253 232 224 231 228 224 231 237 230 206 214 221 225 207 192 191 186 172 168 174 180 202 44 69 56 13 309
319 316 312 312 308 302 292 291 290 273 265 264 260 265 282 284 263 233 223 226 227 232 231 220 210 194 203 209 190 183 182 181 169 169 173 190 233 167 124 86 74 79 58
314 312 310 310 312 314 307 297 291 281 269 265 265 266 271 276 272 255 237 229 214 217 208 170 150 130 132 123 136 161 178 175 172 173 162 134 96 119 155 169 192 167 144
307 306 307 310 311 311 314 309 299 288 276 263 259 261 260 266 270 260 243 225 199 177 154 141 135 132 133 125 110 98 106 123 126 130 146 142 151 160 177 181 206 215 216
306 306 307 310 310 306 318 331 339 324 326 318 299 278 284 295 297 284 244 155 144 154 147 152 157 156 158 157 146 129 118 129 133 141 154 164 178 186 191 242 183 174 177
305 305 306 306 306 301 305 313 324 339 348 339 328 313 304 296 258 158 124 125 129 140 145 152 159 163 165 166 163 159 161 153 147 156 162 168 172 179 180 188 186 178 205
308 305 305 300 300 298 294 292 296 315 333 342 355 7 17 36 66 113 125 115 115 118 114 144 155 160 164 164 162 159 156 155 161 165 167 175 181 184 187 196 200 203 219
310 306 306 304 302 298 297 296 295 305 321 330 349 8 24 45 64 75 98 104 129 126 115 123 132 145 155 158 158 162 170 176 173 172 176 181 197 191 199 206 206 209 231
312 317 317 309 305 304 303 304 299 294 315 340 357 356 2 26 46 47 48 58 80 86 85 92 92 105 128 138 142 149 156 167 171 176 188 199 209 206 206 213 217 227 245
316 317 323 315 310 307 305 305 306 306 321 353 358 5 25 45 54 50 46 45 52 58 58 62 67 80 102 144 156 161 174 191 196 198 201 204 205 210 218 221 226 231 236
315 316 318 318 321 324 330 335 345 348 357 6 4 18 39 48 50 45 39 31 22 17 19 31 36 8 271 215 192 193 201 208 212 208 208 212 215 221 223 227 233 236 233
320 324 327 331 335 346 356 9 17 7 358 353 3 15 27 38 45 41 33 24 17 14 20 28 17 349 354 328 245 228 222 226 229 221 215 218 226 228 227 230 234 239 240
329 332 331 332 340 346 351 359 6 8 2 350 357 11 23 32 33 30 22 14 7 3 7 16 22 6 350 334 304 247 228 225 221 213 219 222 230 234 229 230 237 238 240
336 334 333 330 331 333 341 345 350 354 347 336 336 342 357 29 27 15 7 6 358 356 359 358 360 358 340 322 309 288 247 241 237 225 218 223 229 232 231 234 236 240 240
345 341 334 333 329 329 334 336 338 338 328 327 324 310 319 341 348 349 343 347 350 350 352 354 356 343 326 318 303 293 286 277 259 243 218 212 226 228 228 231 234 233 232
Height
1468 1469 1470 1471 1472 1473 1474 1475 1476 1477 1477 1478 1479 1480 1481 1482 1484 1485 1486 1487 1488 1489 1490 1491 1492 1494 1494 1495 1496 1498 1498 1500 1499 1500 1501 1501 1502 1502 1503 1503 1503 1504 1504
1466 1466 1467 1468 1469 1470 1470 1471 1472 1473 1474 1474 1475 1476 1477 1478 1479 1481 1481 1482 1483 1484 1485 1486 1487 1488 1489 1490 1491 1492 1493 1494 1495 1495 1496 1496 1497 1498 1498 1498 1498 1499 1499
1463 1464 1464 1465 1466 1466 1467 1468 1469 1470 1471 1471 1472 1472 1473 1474 1475 1476 1477 1478 1479 1479 1480 1481 1482 1483 1484 1485 1486 1487 1488 1489 1490 1491 1490 1491 1492 1493 1493 1493 1493 1493 1494
1461 1461 1461 1462 1463 1464 1464 1465 1466 1466 1467 1468 1468 1469 1469 1470 1471 1472 1473 1474 1474 1475 1476 1476 1477 1478 1479 1479 1480 1482 1483 1484 1485 1486 1486 1486 1487 1488 1488 1488 1488 1489 1489
1458 1458 1458 1459 1460 1460 1461 1462 1462 1463 1464 1464 1465 1465 1466 1466 1467 1467 1468 1469 1470 1470 1471 1471 1472 1473 1473 1474 1475 1476 1478 1479 1480 1480 1481 1481 1482 1483 1483 1483 1484 1484 1484
1456 1456 1456 1456 1456 1457 1458 1458 1459 1459 1460 1460 1461 1461 1462 1462 1463 1463 1464 1464 1465 1466 1466 1467 1467 1468 1469 1469 1470 1471 1473 1474 1474 1475 1476 1476 1477 1478 1478 1479 1479 1479 1479
1454 1454 1453 1453 1453 1454 1455 1455 1455 1456 1456 1456 1456 1457 1457 1458 1459 1459 1460 1460 1461 1461 1462 1462 1463 1463 1464 1465 1466 1467 1467 1468 1469 1471 1471 1471 1472 1473 1474 1474 1475 1475 1475
1452 1451 1451 1451 1451 1451 1451 1452 1452 1452 1452 1452 1452 1453 1453 1454 1455 1455 1456 1456 1456 1457 1457 1458 1459 1459 1460 1461 1461 1462 1463 1463 1465 1466 1466 1467 1468 1468 1469 1470 1470 1470 1470
1450 1449 1448 1448 1448 1448 1448 1448 1448 1448 1448 1449 1449 1449 1449 1450 1450 1451 1452 1452 1452 1452 1453 1454 1455 1455 1456 1457 1458 1458 1458 1459 1460 1461 1462 1463 1463 1464 1465 1466 1466 1466 1466
1447 1447 1446 1446 1445 1445 1445 1445 1445 1445 1445 1445 1445 1445 1445 1446 1446 1447 1448 1448 1448 1449 1449 1450 1451 1451 1452 1453 1454 1454 1455 1456 1457 1457 1458 1458 1459 1460 1460 1461 1461 1462 1462
1445 1445 1444 1443 1443 1442 1442 1442 1442 1442 1442 1441 1441 1441 1442 1442 1442 1443 1443 1444 1444 1445 1445 1446 1447 1448 1449 1449 1450 1451 1451 1452 1453 1453 1454 1454 1455 1455 1456 1457 1458 1458 1458
1443 1442 1442 1441 1441 1440 1440 1439 1439 1439 1439 1438 1438 1438 1438 1438 1438 1439 1440 1441 1441 1442 1442 1443 1444 1444 1445 1446 1447 1447 1448 1449 1449 1450 1450 1451 1451 1452 1452 1453 1454 1454 1454
1441 1440 1439 1439 1438 1438 1437 1437 1436 1436 1436 1436 1435 1435 1435 1435 1435 1436 1436 1437 1438 1438 1439 1440 1440 1441 1442 1442 1443 1444 1445 1445 1446 1446 1447 1448 1448 1449 1449 1450 1450 1450 1451
1439 1438 1437 1436 1436 1435 1435 1435 1434 1434 1433 1433 1433 1433 1433 1433 1433 1433 1433 1434 1435 1435 1436 1436 1437 1438 1438 1439 1440 1441 1441 1442 1443 1443 1444 1444 1445 1445 1446 1446 1447 1447 1447
1437 1436 1435 1434 1433 1433 1432 1432 1432 1432 1432 1431 1431 1431 1431 1430 1430 1431 1431 1431 1431 1432 1433 1433 1434 1434 1435 1436 1437 1438 1439 1440 1440 1441 1441 1442 1442 1443 1443 1443 1444 1444 1444
1435 1434 1433 1432 1431 1430 1430 1429 1429 1430 1429 1429 1429 1429 1428 1429 1428 1428 1428 1428 1429 1429 1430 1430 1431 1432 1433 1434 1434 1435 1436 1437 1438 1438 1439 1439 1440 1440 1440 1441 1441 1441 1441
1433 1432 1431 1430 1429 1428 1428 1427 1427 1427 1427 1426 1426 1426 1426 1426 1426 1426 1426 1426 1427 1427 1428 1428 1429 1430 1431 1432 1433 1433 1434 1435 1436 1436 1437 1437 1437 1438 1438 1438 1438 1439 1439
1431 1430 1429 1428 1427 1426 1426 1426 1425 1424 1424 1424 1424 1424 1424 1424 1424 1424 1425 1425 1425 1426 1426 1427 1428 1428 1429 1430 1431 1431 1432 1433 1434 1434 1434 1435 1435 1435 1436 1436 1436 1436 1436
1429 1427 1426 1426 1425 1424 1424 1424 1424 1423 1423 1422 1422 1422 1422 1422 1422 1423 1423 1423 1423 1424 1425 1426 1426 1427 1428 1428 1429 1430 1431 1431 1432 1432 1432 1433 1433 1433 1433 1433 1434 1434 1434
1427 1425 1424 1424 1423 1422 1422 1422 1422 1421 1421 1421 1421 1421 1421 1421 1421 1421 1422 1422 1422 1423 1424 1424 1425 1425 1426 1427 1427 1428 1429 1429 1430 1430 1430 1431 1431 1431 1431 1431 1432 1432 1432
1424 1423 1422 1422 1421 1420 1420 1420 1420 1420 1420 1420 1420 1420 1420 1420 1420 1420 1421 1421 1421 1422 1422 1423 1423 1424 1424 1425 1426 1426 1427 1427 1428 1428 1428 1428 1429 1429 1429 1429 1430 1430 1430
1423 1421 1421 1420 1419 1419 1419 1419 1419 1419 1419 1419 1419 1419 1419 1419 1419 1419 1420 1420 1420 1421 1421 1421 1422 1422 1423 1423 1424 1424 1425 1425 1425 1426 1426 1426 1426 1427 1427 1427 1427 1427 1427
1421 1420 1419 1418 1418 1418 1417 1417 1417 1418 1418 1418 1418 1418 1418 1418 1418 1418 1419 1419 1419 1419 1420 1420 1420 1421 1421 1422 1422 1423 1423 1423 1423 1424 1424 1424 1424 1424 1424 1425 1425 1425 1425
1420 1419 1418 1417 1416 1416 1416 1416 1416 1416 1416 1417 1417 1417 1417 1417 1417 1417 1418 1418 1418 1418 1419 1419 1419 1419 1420 1420 1420 1421 1421 1421 1421 1421 1422 1422 1422 1422 1422 1422 1422 1422 1422
1419 1418 1417 1416 1415 1415 1415 1415 1415 1415 1415 1415 1415 1416 1416 1416 1416 1416 1416 1417 1417 1417 1417 1417 1418 1418 1418 1418 1419 1419 1419 1419 1419 1419 1419 1420 1419 1419 1419 1419 1419 1419 1419
1418 1417 1416 1415 1415 1414 1414 1414 1414 1414 1414 1414 1414 1414 1415 1415 1415 1415 1415 1415 1416 1416 1416 1416 1416 1416 1417 1417 1417 1417 1417 1417 1417 1417 1417 1417 1417 1417 1417 1416 1416 1416 1416